Two Harbors, MN

7:26 AM CDT on June 26, 2017 (GMT -0500)
Helgeson

Weather History for KTWM - May, 2009

Change the Weather History Date:

Wednesday, May 13, 2009

  Actual Average Record
Temperature  
Mean Temperature 60 °F -  
Max Temperature 73 °F 56 °F 77 °F (1949)
Min Temperature 48 °F 38 °F 6 °F (1998)
Degree Days  
Heating Degree Days 4    
Growing Degree Days 10 (Base 50)    
Moisture  
Dew Point 46 °F    
Average Humidity 65    
Maximum Humidity 88    
Minimum Humidity 31    
Precipitation  
Precipitation 0.07 in - - ()
Sea Level Pressure  
Sea Level Pressure 29.48 in    
Wind  
Wind Speed 11 mph (SSW)    
Max Wind Speed 26 mph    
Max Gust Speed 37 mph    
Visibility 9 miles    
Events Rain    
Averages and records for this station are not official NWS values.
T = Trace of Precipitation, MM = Missing Value Source: NWS Daily Summary

Daily Weather History Graph

Daily Weather History Graph

Search for Another Location

Airport or City:

Trip Planner

Search our weather history database for the weather conditions in past years. The results will help you decide how hot, cold, wet, or windy it might be!

Date:

Astronomy

May. 13, 2009 Rise Set
Actual Time 5:33 AM CDT 8:33 PM CDT
Civil Twilight 4:57 AM CDT 9:09 PM CDT
Nautical Twilight 4:11 AM CDT 9:56 PM CDT
Astronomical Twilight 3:16 AM CDT 10:52 PM CDT
Moon 12:20 AM CDT (5/13) 8:35 AM CDT (5/13)
Length of Visible Light 16h 11m
Length of Day
15h 00m
Waning Gibbous, 82% of the Moon is Illuminated
May 13
Waning Gibbous
May 17
Last Quarter
May 24
New
May 30
First Quarter
Jun 7
Full

Hourly Weather History & Observations

Time (CDT) Temp. Dew Point Humidity Pressure Visibility Wind Dir Wind Speed Gust Speed Precip Events Conditions
12:13 AM 53.6 °F 42.8 °F 67% 29.66 in 10.0 mi SSW 6.9 mph - N/A   Drizzle
12:33 AM 53.6 °F 44.6 °F 72% 29.65 in 10.0 mi SSW 5.8 mph - N/A   Overcast
12:53 AM 53.6 °F 44.6 °F 72% 29.65 in 10.0 mi SSW 5.8 mph - N/A   Overcast
1:13 AM 53.6 °F 44.6 °F 72% 29.65 in 10.0 mi SSW 5.8 mph - N/A   Overcast
1:33 AM 55.4 °F 44.6 °F 67% 29.64 in 10.0 mi South 8.1 mph - N/A   Overcast
1:53 AM 55.4 °F 44.6 °F 67% 29.63 in 10.0 mi South 8.1 mph - N/A   Overcast
2:13 AM 55.4 °F 44.6 °F 67% 29.62 in 10.0 mi South 8.1 mph - N/A   Overcast
2:33 AM 53.6 °F 44.6 °F 72% 29.61 in 10.0 mi South 9.2 mph - N/A   Overcast
2:53 AM 53.6 °F 46.4 °F 77% 29.61 in 10.0 mi South 8.1 mph - N/A   Light Drizzle
3:13 AM 53.6 °F 46.4 °F 77% 29.60 in 10.0 mi South 6.9 mph - N/A   Overcast
3:33 AM 53.6 °F 48.2 °F 82% 29.59 in 10.0 mi SSW 11.5 mph 17.3 mph N/A   Drizzle
3:53 AM 53.6 °F 48.2 °F 82% 29.58 in 10.0 mi South 9.2 mph - 0.01 in Rain Light Rain
4:13 AM 53.6 °F 48.2 °F 82% 29.57 in 10.0 mi South 8.1 mph - N/A   Overcast
4:33 AM 51.8 °F 46.4 °F 82% 29.56 in 10.0 mi South 6.9 mph - N/A Rain Light Rain
4:53 AM 51.8 °F 46.4 °F 82% 29.56 in 10.0 mi South 9.2 mph - 0.01 in Rain Light Rain
5:13 AM 51.8 °F 46.4 °F 82% 29.54 in 10.0 mi South 10.4 mph - 0.01 in   Light Drizzle
5:33 AM 51.8 °F 46.4 °F 82% 29.52 in 10.0 mi South 8.1 mph - 0.03 in Rain Light Rain
5:53 AM 50.0 °F 44.6 °F 82% 29.52 in 10.0 mi South 8.1 mph - 0.03 in   Overcast
6:33 AM 48.2 °F 44.6 °F 87% 29.50 in 10.0 mi South 9.2 mph - N/A   Overcast
6:53 AM 48.2 °F 44.6 °F 87% 29.49 in 7.0 mi South 8.1 mph - N/A   Drizzle
7:13 AM 50.0 °F 44.6 °F 82% 29.49 in 10.0 mi South 11.5 mph 16.1 mph N/A   Overcast
7:33 AM 51.8 °F 46.4 °F 82% 29.50 in 10.0 mi South 9.2 mph 17.3 mph N/A   Overcast
7:53 AM 51.8 °F 46.4 °F 82% 29.50 in 7.0 mi South 12.7 mph - N/A Rain Light Rain
8:13 AM 51.8 °F 46.4 °F 82% 29.49 in 7.0 mi South 11.5 mph 18.4 mph 0.01 in   Drizzle
8:33 AM 51.8 °F 46.4 °F 82% 29.48 in 3.0 mi South 11.5 mph 18.4 mph 0.02 in Rain Light Rain
8:53 AM 51.8 °F 46.4 °F 82% 29.47 in 3.0 mi SSW 12.7 mph 19.6 mph 0.02 in   Haze
9:13 AM 51.8 °F 46.4 °F 82% 29.47 in 5.0 mi SSW 11.5 mph - N/A Rain Light Rain
9:33 AM 51.8 °F 46.4 °F 82% 29.46 in 4.0 mi SSW 11.5 mph 16.1 mph N/A   Light Drizzle
9:53 AM 53.6 °F 48.2 °F 82% 29.46 in 4.0 mi SSW 8.1 mph - N/A   Haze
10:13 AM 53.6 °F 48.2 °F 82% 29.46 in 4.0 mi SSW 10.4 mph - N/A   Haze
10:33 AM 53.6 °F 48.2 °F 82% 29.46 in 5.0 mi SSW 9.2 mph - N/A   Haze
10:53 AM 55.4 °F 50.0 °F 82% 29.46 in 7.0 mi SSW 12.7 mph - N/A   Overcast
11:13 AM 55.4 °F 51.8 °F 88% 29.45 in 7.0 mi SSW 12.7 mph - N/A   Overcast
11:33 AM 57.2 °F 51.8 °F 82% 29.45 in 10.0 mi SSW 9.2 mph - N/A   Overcast
11:53 AM 60.8 °F 55.4 °F 82% 29.45 in 10.0 mi SSW 18.4 mph 24.2 mph N/A   Overcast
12:13 PM 60.8 °F 55.4 °F 82% 29.43 in 10.0 mi SSW 12.7 mph 20.7 mph N/A   Overcast
12:33 PM 64.4 °F 55.4 °F 73% 29.43 in 10.0 mi SSW 15.0 mph 23.0 mph N/A   Mostly Cloudy
12:53 PM 66.2 °F 55.4 °F 68% 29.42 in 10.0 mi SSW 15.0 mph 25.3 mph N/A   Mostly Cloudy
1:13 PM 66.2 °F 53.6 °F 64% 29.41 in 10.0 mi SSW 16.1 mph 23.0 mph N/A   Mostly Cloudy
1:33 PM 69.8 °F 55.4 °F 60% 29.40 in 10.0 mi SSW 15.0 mph 25.3 mph N/A   Mostly Cloudy
1:53 PM 71.6 °F 44.6 °F 38% 29.40 in 10.0 mi WSW 19.6 mph 29.9 mph N/A   Scattered Clouds
2:13 PM 71.6 °F 42.8 °F 35% 29.40 in 10.0 mi WSW 20.7 mph 32.2 mph N/A   Clear
2:33 PM 73.4 °F 44.6 °F 36% 29.39 in 10.0 mi SW 17.3 mph 27.6 mph N/A   Clear
2:53 PM 73.4 °F 41.0 °F 31% 29.39 in 10.0 mi West 18.4 mph 35.7 mph N/A   Clear
3:13 PM 71.6 °F 41.0 °F 33% 29.39 in 10.0 mi WSW 18.4 mph 25.3 mph N/A   Clear
3:33 PM 73.4 °F 41.0 °F 31% 29.39 in 10.0 mi WSW 21.9 mph 31.1 mph N/A   Clear
3:53 PM 71.6 °F 41.0 °F 33% 29.40 in 10.0 mi WSW 20.7 mph 35.7 mph N/A   Clear
4:13 PM 71.6 °F 41.0 °F 33% 29.40 in 10.0 mi SW 26.5 mph 36.8 mph N/A   Scattered Clouds
4:33 PM 71.6 °F 41.0 °F 33% 29.40 in 10.0 mi SW 20.7 mph 33.4 mph N/A   Scattered Clouds
4:53 PM 71.6 °F 42.8 °F 35% 29.40 in 10.0 mi SW 23.0 mph 28.8 mph N/A   Clear
5:13 PM 71.6 °F 42.8 °F 35% 29.40 in 10.0 mi SW 18.4 mph 31.1 mph N/A   Scattered Clouds
5:33 PM 69.8 °F 41.0 °F 35% 29.40 in 10.0 mi West 18.4 mph 28.8 mph N/A   Scattered Clouds
5:53 PM 69.8 °F 42.8 °F 38% 29.40 in 10.0 mi WSW 20.7 mph 27.6 mph N/A   Unknown
6:13 PM 69.8 °F 42.8 °F 38% 29.38 in 10.0 mi SW 13.8 mph 26.5 mph N/A   Scattered Clouds
6:32 PM 68.0 °F 41.0 °F 37% 29.38 in 10.0 mi WSW 12.7 mph 26.5 mph N/A   Scattered Clouds
6:52 PM 68.0 °F 39.2 °F 35% 29.39 in 10.0 mi WSW 11.5 mph 26.5 mph N/A   Scattered Clouds
7:13 PM 66.2 °F 39.2 °F 37% 29.39 in 10.0 mi WSW 11.5 mph 19.6 mph N/A   Clear
7:33 PM 66.2 °F 37.4 °F 35% 29.39 in 10.0 mi WSW 17.3 mph 21.9 mph N/A   Clear
7:53 PM 66.2 °F 37.4 °F 35% 29.40 in 10.0 mi WSW 15.0 mph 24.2 mph N/A   Clear
8:13 PM 64.4 °F 37.4 °F 37% 29.41 in 10.0 mi West 16.1 mph 25.3 mph N/A   Clear
8:33 PM 64.4 °F 37.4 °F 37% 29.41 in 10.0 mi West 15.0 mph - N/A   Clear
8:53 PM 62.6 °F 37.4 °F 39% 29.41 in 10.0 mi WSW 17.3 mph 23.0 mph N/A   Scattered Clouds
9:13 PM 59.0 °F 39.2 °F 48% 29.42 in 10.0 mi West 9.2 mph - N/A   Scattered Clouds
9:33 PM 59.0 °F 37.4 °F 45% 29.42 in 10.0 mi West 11.5 mph 17.3 mph N/A   Scattered Clouds
9:53 PM 59.0 °F 37.4 °F 45% 29.42 in 10.0 mi WSW 13.8 mph 18.4 mph N/A   Mostly Cloudy
10:13 PM 57.2 °F 37.4 °F 48% 29.42 in 10.0 mi West 13.8 mph 20.7 mph N/A   Scattered Clouds
10:33 PM 57.2 °F 37.4 °F 48% 29.42 in 10.0 mi West 11.5 mph 19.6 mph N/A   Clear
10:53 PM 55.4 °F 37.4 °F 51% 29.44 in 10.0 mi West 13.8 mph 26.5 mph N/A   Clear
11:13 PM 53.6 °F 37.4 °F 54% 29.44 in 10.0 mi West 11.5 mph 21.9 mph N/A   Clear
11:33 PM 53.6 °F 39.2 °F 58% 29.43 in 10.0 mi WNW 12.7 mph 20.7 mph N/A   Clear
11:53 PM 51.8 °F 39.2 °F 62% 29.44 in 10.0 mi West 11.5 mph 19.6 mph N/A   Clear